Location: Astronomy Club of Akron Observatory
(40.9700°N, 81.5606°W)
Time: 19:49:18
(UTC-04:00)

ISS - Visible Passes

Search period start: 23 September 2017 00:00
Search period end: 03 October 2017 00:00
Orbit: 401 x 407 km, 51.6° (Epoch: 24 September)

Date Brightness Start Highest point End Pass type
(mag) Time Alt. Az. Time Alt. Az. Time Alt. Az.
24 Sep -3.0 20:44:33 10° SSW 20:47:03 34° SSE 20:47:03 34° SSE visible
25 Sep -2.3 19:52:59 10° S 19:55:25 20° SE 19:57:36 11° E visible
25 Sep -1.8 21:28:30 10° WSW 21:30:18 28° W 21:30:18 28° W visible
26 Sep -3.9 20:36:02 10° SW 20:39:18 86° NW 20:40:37 33° NE visible
27 Sep -3.5 19:43:51 10° SW 19:47:00 47° SE 19:50:11 10° ENE visible
27 Sep -1.8 21:20:48 10° W 21:23:25 25° NNW 21:23:25 25° NNW visible
28 Sep -2.6 20:28:01 10° W 20:31:07 39° NNW 20:33:24 16° NE visible
29 Sep -3.5 19:35:26 10° WSW 19:38:41 70° NNW 19:41:57 10° NE visible
29 Sep -1.4 21:13:20 10° WNW 21:15:38 17° NNW 21:15:54 17° N visible
30 Sep -1.7 20:20:20 10° WNW 20:23:01 23° NNW 20:25:38 10° NNE visible
01 Oct -1.2 21:05:53 10° NW 21:07:41 14° N 21:07:57 14° N visible
02 Oct -1.3 20:12:50 10° NW 20:14:58 16° NNW 20:17:08 10° NNE visible
